Date String (YYYY-MM-DD hh:mm:ss) UTC,Instrument flags,Ambient pressure (hPa),Sample flow (lpm),Bypass flow (lpm),Sample temperature (°C),Ambient temperature (°C),ASC tube jacket temperature (°C),LED temperature (°C),Box temperature (°C),Sample RH (%),Span deviation,Mass concentration (μg/m³),Mass concentration (μg/m³),Mass concentration (μg/m³)
DateTimeUTC,F1_M11,P_M11,Q1_M11,Q2_M11,T1_M11,T2_M11,T3_M11,T4_M11,T5_M11,U1_M11,ZSPAN_M11,X2_M11,X0_M11,X1_M11
2022-09-07 12:00:00,,0833.6,4.98,0.00,30.1,29.0,00.0,38.9,31.9,16.7,0000.6,0015.10,0029.29,0013.20
2022-09-07 12:01:00,,0833.6,5.02,0.00,30.1,29.0,00.0,38.9,31.9,16.7,0000.7,0014.89,0028.59,0012.95
2022-09-07 12:02:00,,0833.5,5.00,0.00,30.1,29.0,00.0,38.9,32.0,16.6,0000.6,0014.67,0028.23,0012.72
2022-09-07 12:03:00,,0833.6,5.01,0.00,30.1,29.1,00.0,38.9,32.0,16.4,0000.8,0014.58,0029.27,0012.57
2022-09-07 12:04:00,,0833.6,4.99,0.00,30.2,29.1,00.0,38.9,32.0,16.1,0001.1,0014.49,0029.02,0012.51
2022-09-07 12:05:00,,0833.6,5.01,0.00,30.2,29.1,00.0,39.0,32.0,16.1,0001.2,0014.47,0030.32,0012.48
2022-09-07 12:06:00,,0833.6,5.00,0.00,30.2,29.1,00.0,39.0,32.0,16.0,0000.9,0014.50,0029.95,0012.51
2022-09-07 12:07:00,,0833.6,4.99,0.00,30.2,29.2,00.0,39.0,32.1,16.0,0001.0,0014.61,0028.15,0012.64
2022-09-07 12:08:00,,0833.6,5.02,0.00,30.2,29.2,00.0,39.0,32.1,16.0,0001.2,0014.81,0028.03,0012.83
2022-09-07 12:09:00,,0833.6,4.99,0.00,30.3,29.2,00.0,39.0,32.1,16.1,0001.2,0014.97,0029.35,0012.96
2022-09-07 12:10:00,,0833.6,5.01,0.00,30.3,29.2,00.0,39.0,32.1,16.1,0001.3,0015.07,0028.76,0013.07
2022-09-07 12:11:00,,0833.6,5.00,0.00,30.3,29.2,00.0,39.1,32.1,16.1,0001.1,0015.18,0029.11,0013.20
2022-09-07 12:12:00,,0833.6,5.01,0.00,30.3,29.3,00.0,39.1,32.1,16.2,0001.2,0015.19,0028.80,0013.32
2022-09-07 12:13:00,,0833.5,5.00,0.00,30.3,29.3,00.0,39.1,32.1,16.3,0001.4,0015.26,0029.54,0013.41
2022-09-07 12:14:00,,0833.6,5.00,0.00,30.4,28.8,00.0,39.1,32.1,16.3,0001.5,0015.22,0029.40,0013.41
2022-09-07 12:15:00,,0833.6,5.00,0.00,30.3,27.3,00.0,39.1,32.0,16.1,0001.2,0015.27,0029.62,0013.41
2022-09-07 12:16:00,,0833.5,5.02,0.00,30.3,27.0,00.0,39.0,32.0,16.0,0001.4,0015.38,0028.91,0013.41
2022-09-07 12:17:00,,0833.5,5.00,0.00,30.2,27.2,00.0,39.0,31.9,16.1,0001.8,0015.45,0029.78,0013.41
2022-09-07 12:18:00,,0833.6,5.00,0.00,30.1,27.5,00.0,38.9,31.8,16.2,0001.9,0015.34,0028.91,0013.28
2022-09-07 12:19:00,,0833.5,4.99,0.00,30.1,27.8,00.0,38.9,31.7,16.2,0001.7,0015.18,0029.24,0013.13
2022-09-07 12:20:00,,0833.6,5.00,0.00,30.1,28.0,00.0,38.9,31.7,16.0,0001.8,0015.19,0028.22,0013.10
2022-09-07 12:21:00,,0833.5,5.01,0.00,30.1,28.2,00.0,38.9,31.7,16.0,0001.6,0015.24,0028.30,0013.17
2022-09-07 12:22:00,,0833.6,5.01,0.00,30.0,28.4,00.0,38.9,31.7,16.0,0001.4,0015.34,0027.84,0013.25
2022-09-07 12:23:00,,0833.6,5.00,0.00,30.0,28.5,00.0,38.9,31.8,16.0,0001.5,0015.51,0028.40,0013.37
2022-09-07 12:24:00,,0833.6,4.99,0.00,30.0,28.6,00.0,38.9,31.8,15.9,0001.9,0015.65,0028.34,0013.52
2022-09-07 12:25:00,,0833.6,5.01,0.00,30.1,28.7,00.0,38.9,31.8,15.9,0002.1,0015.92,0028.47,0013.78
2022-09-07 12:26:00,,0833.6,4.99,0.00,30.1,28.8,00.0,38.9,31.9,15.8,0002.3,0016.07,0029.30,0013.96
2022-09-07 12:27:00,,0833.6,5.01,0.00,30.1,28.9,00.0,38.9,31.9,15.8,0002.0,0016.13,0029.53,0014.11
2022-09-07 12:28:00,,0833.6,4.99,0.00,30.1,28.9,00.0,38.9,31.9,15.7,0002.1,0016.18,0028.74,0014.28
2022-09-07 12:29:00,,0833.6,5.01,0.00,30.1,28.9,00.0,38.9,31.9,15.8,0002.2,0016.24,0030.50,0014.43
2022-09-07 12:30:00,,0833.6,4.99,0.00,30.1,29.0,00.0,38.9,32.0,15.8,0002.5,0016.38,0029.71,0014.61
2022-09-07 12:31:00,,0833.6,5.01,0.00,30.2,29.0,00.0,38.9,32.0,15.8,0003.1,0016.43,0029.70,0014.70
2022-09-07 12:32:00,,0833.7,4.98,0.00,30.2,29.1,00.0,38.9,32.0,15.8,0003.3,0016.48,0030.51,0014.75
2022-09-07 12:33:00,,0833.6,5.01,0.00,30.2,29.1,00.0,39.0,32.0,15.8,0003.7,0016.48,0030.59,0014.77
2022-09-07 12:34:00,,0833.6,4.99,0.00,30.2,29.1,00.0,39.0,32.0,15.8,0003.9,0016.58,0030.82,0014.85
2022-09-07 12:35:00,,0833.6,5.01,0.00,30.2,29.2,00.0,39.0,32.1,15.7,0003.6,0016.68,0031.03,0014.93
2022-09-07 12:36:00,,0833.6,4.99,0.00,30.2,29.2,00.0,39.0,32.1,15.6,0003.1,0016.71,0030.81,0014.98
2022-09-07 12:37:00,,0833.6,5.00,0.00,30.3,29.2,00.0,39.0,32.1,15.5,0002.7,0016.73,0030.48,0015.00
2022-09-07 12:38:00,,0833.6,4.99,0.00,30.3,29.2,00.0,39.0,32.1,15.5,0002.9,0016.76,0030.35,0015.02
2022-09-07 12:39:00,,0833.6,5.01,0.00,30.3,29.3,00.0,39.1,32.1,15.5,0002.2,0016.77,0030.54,0015.02
2022-09-07 12:40:00,,0833.6,4.99,0.00,30.3,29.3,00.0,39.1,32.1,15.6,0002.0,0016.73,0028.55,0014.98
2022-09-07 12:41:00,,0833.6,5.00,0.00,30.3,29.3,00.0,39.1,32.2,15.7,0002.0,0016.70,0028.62,0014.98
2022-09-07 12:42:00,,0833.6,5.00,0.00,30.4,29.3,00.0,39.1,32.2,15.7,0001.3,0016.65,0028.39,0014.97
2022-09-07 12:43:00,,0833.7,5.00,0.00,30.4,29.3,00.0,39.1,32.2,15.8,0001.2,0016.54,0029.01,0014.91
2022-09-07 12:44:00,,0833.6,4.99,0.00,30.4,28.7,00.0,39.1,32.2,15.9,0001.4,0016.41,0028.82,0014.80
2022-09-07 12:45:00,,0833.6,5.00,0.00,30.4,27.3,00.0,39.1,32.1,16.0,0001.2,0016.11,0028.09,0014.60
2022-09-07 12:46:00,,0833.6,5.00,0.00,30.3,27.1,00.0,39.0,32.0,16.1,0001.3,0015.87,0027.58,0014.35
2022-09-07 12:47:00,,0833.6,5.00,0.00,30.2,27.3,00.0,39.0,31.9,16.3,0001.8,0015.61,0027.05,0014.01
2022-09-07 12:48:00,,0833.6,5.00,0.00,30.2,27.6,00.0,39.0,31.8,16.3,0002.4,0015.33,0026.49,0013.71
2022-09-07 12:49:00,,0833.7,4.99,0.00,30.1,27.9,00.0,38.9,31.8,16.2,0002.6,0015.09,0025.84,0013.45
2022-09-07 12:50:00,,0833.7,5.00,0.00,30.1,28.1,00.0,38.9,31.8,16.3,0003.1,0014.86,0025.15,0013.19
2022-09-07 12:51:00,,0833.7,5.00,0.00,30.1,28.3,00.0,38.9,31.8,16.4,0003.2,0014.76,0026.15,0013.00
2022-09-07 12:52:00,,0833.7,5.01,0.00,30.1,28.4,00.0,38.9,31.8,16.5,0003.3,0014.54,0027.12,0012.72
2022-09-07 12:53:00,,0833.7,5.01,0.00,30.1,28.6,00.0,38.9,31.9,16.5,0003.1,0014.30,0027.37,0012.42
2022-09-07 12:54:00,,0833.7,5.00,0.00,30.1,28.7,00.0,38.9,31.9,16.4,0003.3,0014.17,0026.37,0012.21
2022-09-07 12:55:00,,0833.7,5.00,0.00,30.1,28.8,00.0,38.9,31.9,16.4,0003.1,0014.16,0026.15,0012.11
2022-09-07 12:56:00,,0833.7,5.00,0.00,30.1,28.8,00.0,38.9,31.9,16.3,0003.4,0014.24,0026.58,0012.07
2022-09-07 12:57:00,,0833.8,5.00,0.00,30.1,28.9,00.0,38.9,31.9,16.3,0003.7,0014.29,0027.43,0012.07
2022-09-07 12:58:00,,0833.8,5.00,0.00,30.1,29.0,00.0,38.9,32.0,16.3,0003.8,0014.32,0027.16,0012.16
2022-09-07 12:59:00,,0833.8,4.99,0.00,30.2,29.0,00.0,38.9,32.0,16.3,0003.9,0014.38,0026.88,0012.21
